| time (UTC) | temp C | wind direction | speed KPH | gust KPH | rain 1hr cm | rain 24hr cm | rain mn cm | humidity % | barometer mb |
| 20260831061044 | 17 | 0 | 0.0 | 12.9 | 0.00 | 0.03 | 0.00 | 87 | 1011.7 |
| 20260831060543 | 17 | 0 | 1.6 | 16.1 | 0.00 | 0.03 | 0.00 | 87 | 1011.7 |
| 20260831060107 | 16 | 0 | 0.0 | 16.1 | 0.00 | 0.03 | 0.00 | 88 | 1011.6 |
| 20260831055543 | 16 | 0 | 0.0 | 9.7 | 0.00 | 0.03 | 0.00 | 88 | 1011.6 |
| 20260831055046 | 16 | 0 | 0.0 | 14.5 | 0.00 | 0.03 | 0.00 | 88 | 1011.5 |
| 20260831054557 | 16 | 0 | 0.0 | 14.5 | 0.00 | 0.03 | 0.00 | 88 | 1011.7 |
| 20260831054046 | 16 | 235 | 0.0 | 14.5 | 0.00 | 0.03 | 0.00 | 89 | 1011.5 |
| 20260831053546 | 16 | 213 | 0.0 | 14.5 | 0.00 | 0.03 | 0.00 | 89 | 1011.5 |
| 20260831053108 | 16 | 0 | 3.2 | 16.1 | 0.00 | 0.03 | 0.00 | 89 | 1011.6 |
| 20260831052544 | 16 | 0 | 1.6 | 16.1 | 0.00 | 0.03 | 0.00 | 89 | 1011.6 |
| 20260831052041 | 16 | 240 | 0.0 | 16.1 | 0.00 | 0.03 | 0.00 | 89 | 1011.6 |
| 20260831051602 | 16 | 0 | 3.2 | 16.1 | 0.00 | 0.03 | 0.00 | 90 | 1011.7 |
| 20260831051046 | 16 | 0 | 1.6 | 12.9 | 0.00 | 0.03 | 0.00 | 90 | 1011.6 |
| 20260831050545 | 16 | 0 | 0.0 | 11.3 | 0.00 | 0.03 | 0.00 | 90 | 1011.6 |
| 20260831050116 | 16 | 0 | 1.6 | 9.7 | 0.00 | 0.03 | 0.00 | 90 | 1011.6 |
| 20260831045546 | 16 | 0 | 0.0 | 11.3 | 0.00 | 0.03 | 0.00 | 90 | 1011.5 |
| 20260831045043 | 16 | 206 | 0.0 | 11.3 | 0.00 | 0.03 | 0.00 | 90 | 1011.5 |
| 20260831044622 | 16 | 202 | 0.0 | 9.7 | 0.00 | 0.03 | 0.00 | 90 | 1011.4 |
| 20260831044043 | 16 | 0 | 0.0 | 9.7 | 0.00 | 0.03 | 0.00 | 89 | 1011.4 |
| 20260831043545 | 16 | 0 | 0.0 | 9.7 | 0.00 | 0.03 | 0.00 | 89 | 1011.4 |
| 20260831043103 | 16 | 0 | 0.0 | 9.7 | 0.00 | 0.03 | 0.00 | 89 | 1011.4 |
| 20260831042546 | 16 | 0 | 0.0 | 4.8 | 0.00 | 0.03 | 0.00 | 89 | 1011.3 |
| 20260831042046 | 16 | 0 | 0.0 | 4.8 | 0.00 | 0.03 | 0.00 | 90 | 1011.4 |
| 20260831041615 | 16 | 0 | 0.0 | 9.7 | 0.00 | 0.03 | 0.00 | 89 | 1011.3 |
| 20260831041046 | 16 | 0 | 0.0 | 9.7 | 0.00 | 0.03 | 0.00 | 89 | 1011.2 |
| 20260831040543 | 16 | 0 | 0.0 | 8.0 | 0.00 | 0.03 | 0.00 | 89 | 1011.2 |
| 20260831040107 | 16 | 0 | 0.0 | 8.0 | 0.00 | 0.03 | 0.00 | 89 | 1011.3 |
| 20260831035542 | 16 | 0 | 0.0 | 9.7 | 0.00 | 0.03 | 0.00 | 89 | 1011.2 |
| 20260831035045 | 16 | 0 | 0.0 | 9.7 | 0.00 | 0.03 | 0.00 | 89 | 1011.1 |
| 20260831034605 | 16 | 0 | 0.0 | 4.8 | 0.00 | 0.03 | 0.00 | 89 | 1011.1 |
| 20260831034042 | 16 | 0 | 0.0 | 4.8 | 0.00 | 0.03 | 0.00 | 89 | 1011.2 |
| 20260831033542 | 16 | 0 | 0.0 | 4.8 | 0.00 | 0.03 | 0.00 | 90 | 1011.3 |
| 20260831033104 | 16 | 0 | 0.0 | 0.0 | 0.00 | 0.03 | 0.00 | 90 | 1011.4 |
| 20260831032544 | 16 | 0 | 0.0 | 0.0 | 0.00 | 0.03 | 0.00 | 90 | 1011.3 |
| 20260831032043 | 16 | 0 | 0.0 | 0.0 | 0.00 | 0.03 | 0.00 | 89 | 1011.4 |
| 20260831031602 | 16 | 0 | 0.0 | 0.0 | 0.00 | 0.03 | 0.00 | 89 | 1011.4 |
| 20260831031047 | 16 | 0 | 0.0 | 9.7 | 0.00 | 0.03 | 0.00 | 88 | 1011.4 |
| 20260831030547 | 16 | 0 | 0.0 | 9.7 | 0.00 | 0.03 | 0.00 | 87 | 1011.3 |
| 20260831030107 | 16 | 215 | 0.0 | 4.8 | 0.00 | 0.03 | 0.00 | 85 | 1011.3 |
| 20260831025545 | 16 | 0 | 0.0 | 12.9 | 0.00 | 0.03 | 0.00 | 84 | 1011.4 |
| 20260831025135 | 17 | 0 | 0.0 | 14.5 | 0.00 | 0.00 | 0.00 | 81 | 1011.3 |
| 20260831024627 | 17 | 0 | 1.6 | 14.5 | 0.00 | 0.00 | 0.00 | 77 | 1011.3 |
| 20260831024042 | 18 | 199 | 1.6 | 14.5 | 0.00 | 0.00 | 0.00 | 75 | 1011.3 |
| 20260831023542 | 17 | 0 | 0.0 | 11.3 | 0.00 | 0.00 | 0.00 | 74 | 1011.1 |
| 20260831023106 | 17 | 0 | 0.0 | 9.7 | 0.00 | 0.00 | 0.00 | 75 | 1011.0 |
| 20260831022604 | 17 | 0 | 0.0 | 14.5 | 0.00 | 0.00 | 0.00 | 75 | 1010.9 |
| 20260831022043 | 17 | 0 | 0.0 | 14.5 | 0.00 | 0.00 | 0.00 | 75 | 1010.9 |
| 20260831021558 | 17 | 0 | 0.0 | 8.0 | 0.00 | 0.00 | 0.00 | 76 | 1010.8 |
| 20260831021046 | 17 | 175 | 0.0 | 8.0 | 0.00 | 0.00 | 0.00 | 76 | 1011.0 |
| 20260831020546 | 17 | 0 | 0.0 | 0.0 | 0.00 | 0.00 | 0.00 | 76 | 1010.9 |
| 20260831020117 | 17 | 0 | 0.0 | 0.0 | 0.00 | 0.00 | 0.00 | 76 | 1010.7 |
| 20260831015545 | 17 | 0 | 0.0 | 0.0 | 0.00 | 0.08 | 0.00 | 76 | 1010.7 |
| 20260831015135 | 17 | 0 | 0.0 | 0.0 | 0.00 | 0.08 | 0.00 | 76 | 1010.7 |
| 20260831014611 | 17 | 0 | 0.0 | 0.0 | 0.00 | 0.08 | 0.00 | 75 | 1010.8 |
| 20260831014045 | 17 | 0 | 0.0 | 3.2 | 0.00 | 0.08 | 0.00 | 74 | 1010.7 |
| 20260831013652 | 17 | 0 | 0.0 | 8.0 | 0.00 | 0.08 | 0.00 | 74 | 1010.7 |
| 20260831013059 | 17 | 0 | 0.0 | 8.0 | 0.00 | 0.08 | 0.00 | 75 | 1010.9 |
| 20260831012543 | 17 | 201 | 0.0 | 8.0 | 0.00 | 0.08 | 0.00 | 75 | 1011.2 |
| 20260831012045 | 17 | 0 | 0.0 | 6.4 | 0.00 | 0.08 | 0.00 | 75 | 1011.3 |
| 20260831011614 | 17 | 0 | 0.0 | 3.2 | 0.00 | 0.08 | 0.00 | 75 | 1011.3 |
| 20260831011042 | 17 | 0 | 0.0 | 3.2 | 0.00 | 0.08 | 0.00 | 75 | 1011.5 |
| 20260831010542 | 17 | 0 | 0.0 | 3.2 | 0.00 | 0.08 | 0.00 | 75 | 1011.5 |
| 20260831010107 | 17 | 0 | 0.0 | 0.0 | 0.00 | 0.08 | 0.00 | 75 | 1011.4 |
| 20260831005542 | 17 | 0 | 0.0 | 0.0 | 0.00 | 0.23 | 0.00 | 75 | 1011.5 |
| 20260831005043 | 17 | 0 | 0.0 | 0.0 | 0.00 | 0.23 | 0.00 | 75 | 1011.4 |
| 20260831004606 | 17 | 0 | 0.0 | 0.0 | 0.00 | 0.23 | 0.00 | 75 | 1011.3 |
| 20260831004044 | 17 | 0 | 0.0 | 0.0 | 0.00 | 0.23 | 0.00 | 75 | 1011.4 |
| 20260831003543 | 17 | 0 | 0.0 | 0.0 | 0.00 | 0.23 | 0.00 | 76 | 1011.4 |
| 20260831003108 | 17 | 0 | 0.0 | 0.0 | 0.00 | 0.23 | 0.00 | 76 | 1011.5 |
| 20260831002542 | 17 | 0 | 0.0 | 0.0 | 0.00 | 0.23 | 0.00 | 76 | 1011.7 |
| 20260831002043 | 17 | 0 | 0.0 | 0.0 | 0.00 | 0.23 | 0.00 | 77 | 1011.6 |
| 20260831001603 | 17 | 0 | 0.0 | 0.0 | 0.00 | 0.23 | 0.00 | 77 | 1011.8 |
| 20260831001045 | 17 | 0 | 0.0 | 0.0 | 0.00 | 0.23 | 0.00 | 77 | 1011.6 |
| 20260831000542 | 17 | 0 | 0.0 | 0.0 | 0.00 | 0.23 | 0.00 | 78 | 1011.5 |
| 20260831000101 | 17 | 0 | 0.0 | 0.0 | 0.00 | 0.23 | 0.00 | 79 | 1011.6 |
| 20260830235542 | 17 | 0 | 0.0 | 0.0 | 0.00 | 0.23 | 0.00 | 79 | 1011.7 |
| 20260830235044 | 17 | 0 | 0.0 | 0.0 | 0.00 | 0.23 | 0.00 | 79 | 1011.7 |
| 20260830234614 | 17 | 0 | 0.0 | 0.0 | 0.00 | 0.23 | 0.00 | 79 | 1011.8 |
| 20260830234041 | 17 | 0 | 0.0 | 0.0 | 0.00 | 0.23 | 0.00 | 79 | 1011.6 |
| 20260830233542 | 17 | 0 | 0.0 | 0.0 | 0.00 | 0.23 | 0.00 | 79 | 1011.8 |
| 20260830233106 | 17 | 0 | 0.0 | 0.0 | 0.00 | 0.23 | 0.00 | 79 | 1011.7 |
| 20260830232542 | 17 | 0 | 0.0 | 0.0 | 0.00 | 0.23 | 0.00 | 79 | 1011.8 |
| 20260830232042 | 17 | 0 | 0.0 | 0.0 | 0.00 | 0.23 | 0.00 | 79 | 1011.8 |
| 20260830231605 | 17 | 0 | 0.0 | 0.0 | 0.00 | 0.23 | 0.00 | 79 | 1011.8 |
| 20260830231041 | 17 | 0 | 0.0 | 0.0 | 0.00 | 0.23 | 0.00 | 78 | 1011.9 |
| 20260830230543 | 17 | 0 | 0.0 | 0.0 | 0.00 | 0.23 | 0.00 | 78 | 1011.9 |
| 20260830230104 | 17 | 0 | 0.0 | 0.0 | 0.00 | 0.23 | 0.00 | 78 | 1011.8 |
| 20260830225542 | 17 | 0 | 0.0 | 0.0 | 0.00 | 0.23 | 0.00 | 78 | 1011.9 |
| 20260830225046 | 17 | 0 | 0.0 | 0.0 | 0.00 | 0.23 | 0.00 | 77 | 1012.0 |
| 20260830224607 | 17 | 0 | 0.0 | 0.0 | 0.00 | 0.23 | 0.00 | 77 | 1012.2 |
| 20260830224046 | 17 | 0 | 0.0 | 0.0 | 0.00 | 0.23 | 0.00 | 77 | 1012.2 |
| 20260830223546 | 17 | 0 | 0.0 | 0.0 | 0.00 | 0.23 | 0.00 | 77 | 1012.2 |
| 20260830223108 | 17 | 0 | 0.0 | 0.0 | 0.00 | 0.23 | 0.00 | 78 | 1012.2 |
| 20260830222542 | 17 | 0 | 0.0 | 0.0 | 0.00 | 0.23 | 0.00 | 78 | 1012.2 |
| 20260830222138 | 17 | 0 | 0.0 | 0.0 | 0.00 | 0.23 | 0.00 | 78 | 1012.3 |
| 20260830221602 | 17 | 0 | 0.0 | 0.0 | 0.00 | 0.23 | 0.00 | 77 | 1012.3 |
| 20260830221046 | 17 | 0 | 0.0 | 0.0 | 0.00 | 0.23 | 0.00 | 77 | 1012.4 |
| 20260830220545 | 17 | 0 | 0.0 | 0.0 | 0.00 | 0.23 | 0.00 | 76 | 1012.3 |
| 20260830215545 | 17 | 0 | 0.0 | 0.0 | 0.00 | 0.23 | 0.23 | 76 | 1012.6 |
| 20260830215046 | 17 | 0 | 0.0 | 0.0 | 0.00 | 0.23 | 0.23 | 77 | 1012.5 |
| 20260830214607 | 17 | 0 | 0.0 | 0.0 | 0.00 | 0.23 | 0.23 | 77 | 1012.5 |
| 20260830214044 | 17 | 0 | 0.0 | 0.0 | 0.00 | 0.23 | 0.23 | 77 | 1012.6 |
| 20260830213542 | 17 | 0 | 0.0 | 0.0 | 0.00 | 0.23 | 0.23 | 77 | 1012.7 |
| 20260830213108 | 17 | 0 | 0.0 | 0.0 | 0.00 | 0.23 | 0.23 | 77 | 1012.7 |
| 20260830212542 | 17 | 0 | 0.0 | 0.0 | 0.00 | 0.23 | 0.23 | 78 | 1012.8 |
| 20260830212042 | 17 | 0 | 0.0 | 0.0 | 0.00 | 0.23 | 0.23 | 78 | 1012.7 |
| 20260830211606 | 17 | 0 | 0.0 | 0.0 | 0.00 | 0.23 | 0.23 | 77 | 1012.6 |
| 20260830211043 | 17 | 0 | 0.0 | 0.0 | 0.00 | 0.23 | 0.23 | 78 | 1012.7 |
| 20260830210546 | 17 | 0 | 0.0 | 0.0 | 0.00 | 0.23 | 0.23 | 78 | 1012.7 |
| 20260830210108 | 17 | 0 | 0.0 | 0.0 | 0.00 | 0.23 | 0.23 | 79 | 1012.7 |
| 20260830205545 | 17 | 0 | 0.0 | 0.0 | 0.00 | 0.23 | 0.23 | 79 | 1012.8 |
| 20260830205042 | 17 | 0 | 0.0 | 0.0 | 0.00 | 0.23 | 0.23 | 80 | 1013.0 |
| 20260830204606 | 17 | 0 | 0.0 | 0.0 | 0.00 | 0.23 | 0.23 | 83 | 1012.9 |
| 20260830204044 | 16 | 0 | 0.0 | 0.0 | 0.00 | 0.23 | 0.23 | 84 | 1013.0 |
| 20260830203545 | 16 | 0 | 0.0 | 0.0 | 0.00 | 0.23 | 0.23 | 84 | 1012.9 |
| 20260830203103 | 16 | 0 | 0.0 | 0.0 | 0.00 | 0.23 | 0.23 | 84 | 1012.9 |
| 20260830202542 | 16 | 0 | 0.0 | 0.0 | 0.00 | 0.23 | 0.23 | 84 | 1012.9 |
| 20260830202042 | 16 | 0 | 0.0 | 0.0 | 0.00 | 0.23 | 0.23 | 84 | 1012.9 |
| 20260830201613 | 16 | 0 | 0.0 | 0.0 | 0.00 | 0.23 | 0.23 | 84 | 1012.8 |
| 20260830201042 | 17 | 0 | 0.0 | 0.0 | 0.00 | 0.23 | 0.23 | 83 | 1012.9 |
| 20260830200544 | 17 | 0 | 0.0 | 0.0 | 0.00 | 0.23 | 0.23 | 83 | 1012.7 |
| 20260830200058 | 17 | 0 | 0.0 | 0.0 | 0.00 | 0.23 | 0.23 | 83 | 1012.9 |
| 20260830195546 | 17 | 0 | 0.0 | 0.0 | 0.00 | 0.23 | 0.23 | 82 | 1013.0 |
| 20260830195042 | 17 | 0 | 0.0 | 0.0 | 0.00 | 0.23 | 0.23 | 82 | 1013.0 |
| 20260830194606 | 17 | 0 | 0.0 | 0.0 | 0.00 | 0.23 | 0.23 | 82 | 1012.9 |
| 20260830194042 | 17 | 0 | 0.0 | 0.0 | 0.00 | 0.23 | 0.23 | 81 | 1013.0 |
| 20260830193542 | 17 | 0 | 0.0 | 0.0 | 0.00 | 0.23 | 0.23 | 81 | 1013.0 |
| 20260830193102 | 17 | 0 | 0.0 | 0.0 | 0.00 | 0.23 | 0.23 | 80 | 1013.2 |
| 20260830192541 | 17 | 0 | 0.0 | 0.0 | 0.00 | 0.23 | 0.23 | 80 | 1013.1 |
| 20260830192041 | 17 | 0 | 0.0 | 0.0 | 0.00 | 0.23 | 0.23 | 79 | 1013.1 |
| 20260830191604 | 17 | 0 | 0.0 | 0.0 | 0.00 | 0.23 | 0.23 | 78 | 1013.1 |
| 20260830191042 | 17 | 0 | 0.0 | 0.0 | 0.00 | 0.23 | 0.23 | 76 | 1013.0 |
| 20260830190544 | 17 | 0 | 0.0 | 0.0 | 0.00 | 0.23 | 0.23 | 76 | 1013.2 |
| 20260830190057 | 17 | 0 | 0.0 | 0.0 | 0.00 | 0.23 | 0.23 | 76 | 1013.2 |
| 20260830185545 | 17 | 0 | 0.0 | 0.0 | 0.00 | 0.25 | 0.23 | 76 | 1013.2 |
| 20260830185041 | 18 | 0 | 0.0 | 0.0 | 0.00 | 0.25 | 0.23 | 75 | 1013.1 |
| 20260830184605 | 18 | 0 | 0.0 | 0.0 | 0.00 | 0.25 | 0.23 | 75 | 1013.1 |
| 20260830184046 | 18 | 0 | 0.0 | 0.0 | 0.00 | 0.25 | 0.23 | 73 | 1013.0 |
| 20260830183625 | 18 | 0 | 0.0 | 0.0 | 0.00 | 0.25 | 0.23 | 74 | 1013.1 |
| 20260830183100 | 18 | 0 | 0.0 | 0.0 | 0.00 | 0.25 | 0.23 | 74 | 1013.2 |
| 20260830182547 | 18 | 0 | 0.0 | 0.0 | 0.00 | 0.25 | 0.23 | 73 | 1013.2 |
| 20260830182049 | 18 | 0 | 0.0 | 0.0 | 0.00 | 0.25 | 0.23 | 72 | 1013.1 |
| 20260830181611 | 18 | 0 | 0.0 | 0.0 | 0.00 | 0.25 | 0.23 | 71 | 1013.2 |
| 20260830181050 | 19 | 0 | 0.0 | 0.0 | 0.00 | 0.25 | 0.23 | 70 | 1013.3 |
| 20260830180546 | 19 | 0 | 0.0 | 0.0 | 0.00 | 0.25 | 0.23 | 70 | 1013.2 |
| 20260830180112 | 19 | 0 | 0.0 | 0.0 | 0.00 | 0.25 | 0.23 | 69 | 1013.2 |
| 20260830175546 | 20 | 0 | 0.0 | 0.0 | 0.00 | 0.25 | 0.23 | 69 | 1013.2 |
| 20260830175046 | 20 | 0 | 0.0 | 0.0 | 0.00 | 0.25 | 0.23 | 68 | 1013.2 |
| 20260830174606 | 20 | 0 | 0.0 | 0.0 | 0.00 | 0.25 | 0.23 | 68 | 1013.3 |
| 20260830174046 | 20 | 0 | 0.0 | 0.0 | 0.00 | 0.25 | 0.23 | 68 | 1013.3 |
| 20260830173546 | 20 | 0 | 0.0 | 0.0 | 0.00 | 0.25 | 0.23 | 67 | 1013.2 |
| 20260830173112 | 20 | 0 | 0.0 | 0.0 | 0.00 | 0.25 | 0.23 | 66 | 1013.1 |
| 20260830172546 | 20 | 0 | 0.0 | 0.0 | 0.00 | 0.25 | 0.23 | 66 | 1013.2 |
| 20260830172046 | 20 | 0 | 0.0 | 0.0 | 0.00 | 0.25 | 0.23 | 66 | 1013.2 |
| 20260830171603 | 20 | 0 | 0.0 | 0.0 | 0.00 | 0.25 | 0.23 | 66 | 1013.1 |
| 20260830171046 | 20 | 0 | 0.0 | 6.4 | 0.00 | 0.25 | 0.23 | 67 | 1013.2 |
| 20260830170547 | 20 | 0 | 0.0 | 6.4 | 0.00 | 0.25 | 0.23 | 67 | 1013.2 |
| 20260830170107 | 20 | 0 | 0.0 | 0.0 | 0.00 | 0.25 | 0.23 | 69 | 1013.1 |
| 20260830165547 | 21 | 0 | 0.0 | 0.0 | 0.00 | 0.25 | 0.23 | 68 | 1013.1 |
| 20260830165046 | 21 | 0 | 0.0 | 1.6 | 0.00 | 0.25 | 0.23 | 67 | 1013.1 |
| 20260830164605 | 21 | 0 | 0.0 | 3.2 | 0.00 | 0.25 | 0.23 | 66 | 1013.0 |
| 20260830164046 | 21 | 0 | 0.0 | 3.2 | 0.00 | 0.25 | 0.23 | 66 | 1013.2 |
| 20260830163546 | 21 | 0 | 0.0 | 6.4 | 0.00 | 0.25 | 0.23 | 67 | 1013.2 |
| 20260830163103 | 21 | 0 | 0.0 | 16.1 | 0.00 | 0.25 | 0.23 | 66 | 1013.1 |
| 20260830162546 | 21 | 0 | 0.0 | 16.1 | 0.00 | 0.25 | 0.23 | 63 | 1013.3 |
| 20260830162046 | 21 | 0 | 0.0 | 16.1 | 0.00 | 0.25 | 0.23 | 64 | 1013.1 |
| 20260830161601 | 21 | 0 | 0.0 | 14.5 | 0.00 | 0.25 | 0.23 | 64 | 1013.2 |
| 20260830161046 | 21 | 194 | 3.2 | 20.9 | 0.00 | 0.25 | 0.23 | 64 | 1013.2 |
| 20260830160548 | 21 | 0 | 3.2 | 20.9 | 0.00 | 0.25 | 0.23 | 64 | 1013.0 |
| 20260830160109 | 21 | 0 | 4.8 | 20.9 | 0.00 | 0.25 | 0.23 | 63 | 1013.2 |
| 20260830155546 | 21 | 0 | 6.4 | 20.9 | 0.00 | 0.25 | 0.23 | 64 | 1013.1 |
| 20260830155046 | 21 | 222 | 8.0 | 20.9 | 0.00 | 0.25 | 0.23 | 63 | 1013.1 |
| 20260830154604 | 21 | 234 | 3.2 | 19.3 | 0.00 | 0.25 | 0.23 | 66 | 1013.2 |
| 20260830154049 | 21 | 0 | 1.6 | 19.3 | 0.00 | 0.25 | 0.23 | 65 | 1013.2 |
| 20260830153545 | 21 | 244 | 4.8 | 19.3 | 0.00 | 0.25 | 0.23 | 64 | 1013.2 |
| 20260830153106 | 21 | 205 | 3.2 | 19.3 | 0.00 | 0.25 | 0.23 | 65 | 1013.2 |
| 20260830152547 | 21 | 0 | 3.2 | 24.1 | 0.00 | 0.25 | 0.23 | 66 | 1013.3 |
| 20260830152047 | 21 | 202 | 4.8 | 24.1 | 0.00 | 0.25 | 0.23 | 65 | 1013.3 |
| 20260830151623 | 21 | 257 | 9.7 | 27.4 | 0.00 | 0.25 | 0.23 | 66 | 1013.4 |
| 20260830151047 | 21 | 238 | 6.4 | 27.4 | 0.00 | 0.25 | 0.23 | 65 | 1013.4 |
| 20260830150551 | 21 | 236 | 3.2 | 25.7 | 0.00 | 0.25 | 0.23 | 66 | 1013.4 |
| 20260830150108 | 21 | 0 | 4.8 | 25.7 | 0.00 | 0.25 | 0.23 | 65 | 1013.4 |
| 20260830145547 | 21 | 0 | 11.3 | 25.7 | 0.00 | 0.25 | 0.23 | 66 | 1013.5 |
| 20260830145047 | 21 | 238 | 1.6 | 14.5 | 0.00 | 0.25 | 0.23 | 67 | 1013.4 |
| 20260830144607 | 21 | 0 | 1.6 | 16.1 | 0.00 | 0.25 | 0.23 | 68 | 1013.4 |
| 20260830144050 | 21 | 0 | 1.6 | 20.9 | 0.00 | 0.25 | 0.23 | 68 | 1013.5 |
| 20260830143546 | 21 | 0 | 4.8 | 20.9 | 0.00 | 0.25 | 0.23 | 67 | 1013.5 |
| 20260830143106 | 21 | 0 | 3.2 | 16.1 | 0.00 | 0.25 | 0.23 | 68 | 1013.5 |
| 20260830142546 | 21 | 0 | 1.6 | 19.3 | 0.00 | 0.25 | 0.23 | 68 | 1013.5 |
| 20260830142047 | 21 | 222 | 4.8 | 22.5 | 0.00 | 0.25 | 0.23 | 67 | 1013.5 |
| 20260830141603 | 21 | 242 | 3.2 | 22.5 | 0.00 | 0.25 | 0.23 | 68 | 1013.5 |
| 20260830141047 | 21 | 184 | 9.7 | 25.7 | 0.00 | 0.25 | 0.23 | 68 | 1013.5 |
| 20260830140550 | 21 | 243 | 4.8 | 29.0 | 0.00 | 0.25 | 0.23 | 69 | 1013.4 |
| 20260830140104 | 21 | 244 | 6.4 | 29.0 | 0.00 | 0.25 | 0.23 | 67 | 1013.6 |
| 20260830135546 | 21 | 234 | 8.0 | 35.4 | 0.00 | 0.25 | 0.23 | 68 | 1013.6 |
| 20260830135046 | 21 | 245 | 11.3 | 35.4 | 0.00 | 0.25 | 0.23 | 68 | 1013.6 |
| 20260830134600 | 21 | 231 | 4.8 | 24.1 | 0.00 | 0.25 | 0.23 | 70 | 1013.6 |
| 20260830134047 | 20 | 0 | 8.0 | 24.1 | 0.00 | 0.25 | 0.23 | 69 | 1013.6 |
| 20260830133546 | 20 | 241 | 8.0 | 24.1 | 0.00 | 0.25 | 0.23 | 70 | 1013.6 |
| 20260830133105 | 20 | 248 | 4.8 | 24.1 | 0.00 | 0.25 | 0.23 | 70 | 1013.5 |
| 20260830132547 | 20 | 212 | 0.0 | 16.1 | 0.00 | 0.25 | 0.23 | 71 | 1013.5 |
| 20260830132046 | 20 | 0 | 1.6 | 27.4 | 0.00 | 0.25 | 0.23 | 72 | 1013.6 |
| 20260830131606 | 20 | 244 | 9.7 | 30.6 | 0.00 | 0.25 | 0.23 | 71 | 1013.6 |
| 20260830131047 | 20 | 258 | 11.3 | 30.6 | 0.00 | 0.25 | 0.23 | 71 | 1013.6 |
| 20260830130544 | 20 | 0 | 4.8 | 32.2 | 0.00 | 0.25 | 0.23 | 70 | 1013.6 |
| 20260830130105 | 20 | 229 | 11.3 | 32.2 | 0.00 | 0.25 | 0.23 | 71 | 1013.6 |
| 20260830125544 | 20 | 248 | 9.7 | 29.0 | 0.00 | 0.25 | 0.23 | 70 | 1013.6 |
| 20260830125046 | 20 | 243 | 9.7 | 33.8 | 0.00 | 0.25 | 0.23 | 71 | 1013.6 |
| 20260830124603 | 20 | 247 | 9.7 | 33.8 | 0.00 | 0.25 | 0.23 | 71 | 1013.6 |
| 20260830124047 | 20 | 234 | 11.3 | 25.7 | 0.00 | 0.25 | 0.23 | 70 | 1013.5 |
| 20260830123548 | 20 | 257 | 11.3 | 24.1 | 0.00 | 0.25 | 0.23 | 70 | 1013.5 |
| 20260830123108 | 20 | 233 | 3.2 | 33.8 | 0.00 | 0.25 | 0.23 | 70 | 1013.5 |
| 20260830122545 | 20 | 239 | 12.9 | 33.8 | 0.00 | 0.25 | 0.23 | 70 | 1013.5 |
| 20260830122045 | 20 | 257 | 12.9 | 33.8 | 0.00 | 0.25 | 0.23 | 71 | 1013.3 |
| 20260830121605 | 21 | 223 | 4.8 | 37.0 | 0.00 | 0.25 | 0.23 | 72 | 1013.3 |
| 20260830121046 | 20 | 0 | 8.0 | 37.0 | 0.00 | 0.25 | 0.23 | 72 | 1013.3 |
| 20260830120546 | 20 | 236 | 11.3 | 35.4 | 0.00 | 0.25 | 0.23 | 73 | 1013.3 |
| 20260830120104 | 20 | 222 | 6.4 | 30.6 | 0.00 | 0.25 | 0.23 | 73 | 1013.3 |
| 20260830115546 | 20 | 252 | 9.7 | 30.6 | 0.00 | 0.25 | 0.23 | 73 | 1013.3 |
| 20260830115048 | 20 | 207 | 1.6 | 22.5 | 0.00 | 0.25 | 0.23 | 74 | 1013.3 |
| 20260830114600 | 20 | 240 | 6.4 | 22.5 | 0.00 | 0.25 | 0.23 | 75 | 1013.2 |
| 20260830114046 | 20 | 0 | 4.8 | 20.9 | 0.00 | 0.25 | 0.23 | 77 | 1013.3 |
| 20260830113546 | 19 | 220 | 0.0 | 27.4 | 0.00 | 0.25 | 0.23 | 78 | 1013.3 |
| 20260830113103 | 19 | 0 | 8.0 | 27.4 | 0.00 | 0.25 | 0.23 | 77 | 1013.3 |
| 20260830112546 | 20 | 0 | 6.4 | 25.7 | 0.00 | 0.25 | 0.23 | 75 | 1013.2 |
| 20260830112046 | 20 | 0 | 3.2 | 20.9 | 0.00 | 0.25 | 0.23 | 76 | 1013.1 |
| 20260830111603 | 20 | 221 | 8.0 | 19.3 | 0.00 | 0.25 | 0.23 | 75 | 1013.1 |
| 20260830111046 | 20 | 224 | 4.8 | 19.3 | 0.00 | 0.25 | 0.23 | 76 | 1013.1 |
| 20260830110546 | 20 | 220 | 4.8 | 22.5 | 0.00 | 0.25 | 0.23 | 75 | 1013.1 |
| 20260830110113 | 20 | 243 | 4.8 | 22.5 | 0.00 | 0.25 | 0.23 | 75 | 1013.1 |
| 20260830105545 | 20 | 234 | 1.6 | 19.3 | 0.00 | 0.25 | 0.23 | 77 | 1013.0 |
| 20260830105047 | 20 | 229 | 3.2 | 27.4 | 0.00 | 0.25 | 0.23 | 78 | 1013.1 |
| 20260830104607 | 20 | 194 | 8.0 | 27.4 | 0.00 | 0.25 | 0.23 | 77 | 1013.0 |
| 20260830104047 | 19 | 240 | 3.2 | 30.6 | 0.00 | 0.25 | 0.23 | 79 | 1013.1 |
| 20260830103545 | 19 | 238 | 9.7 | 30.6 | 0.00 | 0.25 | 0.23 | 79 | 1013.1 |
| 20260830103108 | 19 | 248 | 1.6 | 20.9 | 0.00 | 0.25 | 0.23 | 79 | 1013.0 |
| 20260830102544 | 19 | 0 | 6.4 | 25.7 | 0.00 | 0.25 | 0.23 | 78 | 1013.1 |
| 20260830102046 | 19 | 0 | 8.0 | 25.7 | 0.00 | 0.25 | 0.23 | 78 | 1013.0 |
| 20260830101606 | 19 | 227 | 4.8 | 24.1 | 0.00 | 0.25 | 0.23 | 80 | 1013.0 |
| 20260830101047 | 19 | 237 | 8.0 | 22.5 | 0.00 | 0.25 | 0.23 | 79 | 1012.8 |
| 20260830100548 | 19 | 258 | 4.8 | 25.7 | 0.00 | 0.25 | 0.23 | 79 | 1013.0 |
| 20260830100105 | 19 | 277 | 4.8 | 25.7 | 0.00 | 0.25 | 0.23 | 83 | 1013.0 |
| 20260830095546 | 18 | 207 | 8.0 | 29.0 | 0.00 | 0.25 | 0.23 | 83 | 1013.0 |
| 20260830095047 | 18 | 200 | 11.3 | 29.0 | 0.00 | 0.25 | 0.23 | 84 | 1013.1 |
| 20260830094615 | 18 | 222 | 8.0 | 29.0 | 0.00 | 0.25 | 0.23 | 85 | 1013.0 |
| 20260830094044 | 18 | 221 | 8.0 | 29.0 | 0.00 | 0.25 | 0.23 | 84 | 1013.0 |
| 20260830093546 | 18 | 225 | 9.7 | 29.0 | 0.00 | 0.25 | 0.23 | 84 | 1013.0 |
| 20260830093105 | 17 | 219 | 6.4 | 25.7 | 0.00 | 0.25 | 0.23 | 85 | 1013.1 |
| 20260830092618 | 17 | 221 | 6.4 | 25.7 | 0.00 | 0.25 | 0.23 | 85 | 1013.0 |
| 20260830092047 | 17 | 253 | 4.8 | 29.0 | 0.00 | 0.25 | 0.23 | 86 | 1013.0 |
| 20260830091601 | 17 | 247 | 9.7 | 29.0 | 0.00 | 0.25 | 0.23 | 86 | 1013.0 |
| 20260830091046 | 17 | 203 | 6.4 | 27.4 | 0.00 | 0.25 | 0.23 | 85 | 1013.0 |
| 20260830090547 | 17 | 206 | 8.0 | 29.0 | 0.00 | 0.25 | 0.23 | 83 | 1013.0 |
| 20260830090058 | 17 | 0 | 9.7 | 32.2 | 0.00 | 0.25 | 0.23 | 82 | 1012.9 |
| 20260830085546 | 17 | 250 | 12.9 | 32.2 | 0.00 | 0.25 | 0.23 | 82 | 1012.7 |
| 20260830085047 | 17 | 207 | 12.9 | 29.0 | 0.00 | 0.25 | 0.23 | 82 | 1012.5 |
| 20260830084606 | 18 | 212 | 9.7 | 30.6 | 0.00 | 0.25 | 0.23 | 81 | 1012.4 |
| 20260830084047 | 18 | 227 | 6.4 | 30.6 | 0.00 | 0.25 | 0.23 | 80 | 1012.3 |
| 20260830083546 | 18 | 207 | 8.0 | 33.8 | 0.00 | 0.25 | 0.23 | 80 | 1012.2 |
| 20260830083106 | 18 | 235 | 6.4 | 33.8 | 0.00 | 0.25 | 0.23 | 79 | 1012.2 |
| 20260830082545 | 18 | 210 | 8.0 | 35.4 | 0.00 | 0.25 | 0.23 | 79 | 1012.1 |
| 20260830082045 | 18 | 261 | 11.3 | 38.6 | 0.00 | 0.25 | 0.23 | 78 | 1012.1 |
| 20260830081606 | 18 | 212 | 14.5 | 38.6 | 0.00 | 0.25 | 0.23 | 77 | 1012.1 |
| 20260830081046 | 18 | 244 | 9.7 | 37.0 | 0.00 | 0.25 | 0.23 | 77 | 1011.9 |
| 20260830080547 | 18 | 0 | 8.0 | 33.8 | 0.00 | 0.25 | 0.23 | 78 | 1011.8 |
| 20260830075547 | 18 | 216 | 8.0 | 30.6 | 0.00 | 0.25 | 0.23 | 79 | 1011.8 |
| 20260830075045 | 18 | 205 | 9.7 | 29.0 | 0.00 | 0.25 | 0.23 | 78 | 1011.8 |
| 20260830074626 | 18 | 215 | 8.0 | 29.0 | 0.00 | 0.25 | 0.23 | 78 | 1011.6 |
| 20260830074046 | 18 | 221 | 8.0 | 29.0 | 0.00 | 0.25 | 0.23 | 77 | 1011.6 |
| 20260830073546 | 18 | 207 | 8.0 | 27.4 | 0.00 | 0.25 | 0.23 | 78 | 1011.5 |
| 20260830073114 | 18 | 240 | 9.7 | 29.0 | 0.00 | 0.25 | 0.23 | 79 | 1011.4 |
| 20260830072546 | 18 | 197 | 4.8 | 32.2 | 0.00 | 0.25 | 0.23 | 78 | 1011.4 |
| 20260830072046 | 18 | 201 | 16.1 | 32.2 | 0.00 | 0.25 | 0.23 | 79 | 1011.3 |
| 20260830071604 | 18 | 0 | 11.3 | 41.8 | 0.00 | 0.25 | 0.23 | 79 | 1011.3 |
| 20260830071045 | 18 | 196 | 4.8 | 41.8 | 0.00 | 0.25 | 0.23 | 80 | 1011.3 |
| 20260830070546 | 18 | 251 | 12.9 | 41.8 | 0.00 | 0.25 | 0.23 | 80 | 1011.2 |
| 20260830070108 | 18 | 211 | 4.8 | 33.8 | 0.00 | 0.25 | 0.23 | 80 | 1011.2 |
| 20260830065545 | 18 | 252 | 9.7 | 33.8 | 0.00 | 0.25 | 0.23 | 79 | 1011.2 |
| 20260830065045 | 18 | 175 | 9.7 | 33.8 | 0.00 | 0.25 | 0.23 | 80 | 1011.2 |
| 20260830064605 | 17 | 0 | 3.2 | 35.4 | 0.00 | 0.25 | 0.23 | 81 | 1011.1 |
| 20260830064048 | 17 | 229 | 4.8 | 35.4 | 0.00 | 0.25 | 0.23 | 80 | 1011.1 |
| 20260830063546 | 17 | 241 | 6.4 | 33.8 | 0.00 | 0.25 | 0.23 | 81 | 1011.0 |
| 20260830063100 | 17 | 0 | 4.8 | 30.6 | 0.00 | 0.25 | 0.23 | 82 | 1010.9 |
| 20260830062549 | 17 | 0 | 4.8 | 24.1 | 0.00 | 0.25 | 0.23 | 82 | 1011.0 |
| 20260830062045 | 17 | 0 | 3.2 | 22.5 | 0.00 | 0.25 | 0.23 | 82 | 1010.9 |
| 20260830061637 | 17 | 251 | 4.8 | 22.5 | 0.00 | 0.25 | 0.23 | 82 | 1010.8 |